Time,TemperatureF,DewpointF,PressureIn,WindDirection,WindDirectionDegrees,WindSpeedMPH,WindSpeedGustMPH,Humidity,HourlyPrecipIn,Conditions,Clouds,dailyrainin,SoftwareType,DateUTC
2013-09-03 00:00:00,78.5,61.0,29.93,NE,38,6.0,6.0,55,0.00,,,0.00,Wunderground v.1.15,2013-09-03 05:00:00,
2013-09-03 00:10:00,78.4,60.9,29.93,NE,55,4.0,4.0,55,0.00,,,0.00,Wunderground v.1.15,2013-09-03 05:10:00,
2013-09-03 00:20:00,77.9,60.9,29.93,NE,44,5.0,5.0,56,0.00,,,0.00,Wunderground v.1.15,2013-09-03 05:20:00,
2013-09-03 00:30:00,77.3,60.9,29.93,NE,47,4.0,4.0,57,0.00,,,0.00,Wunderground v.1.15,2013-09-03 05:30:00,
2013-09-03 00:35:00,77.0,61.1,29.93,NE,44,4.0,4.0,58,0.00,,,0.00,Wunderground v.1.15,2013-09-03 05:35:00,
2013-09-03 00:40:00,76.9,61.0,29.93,NE,51,4.0,4.0,58,0.00,,,0.00,Wunderground v.1.15,2013-09-03 05:40:00,
2013-09-03 00:50:00,76.6,61.2,29.94,NE,45,4.0,4.0,59,0.00,,,0.00,Wunderground v.1.15,2013-09-03 05:50:00,
2013-09-03 01:00:00,76.3,60.9,29.94,ENE,71,4.0,4.0,59,0.00,,,0.00,Wunderground v.1.15,2013-09-03 06:00:00,
2013-09-03 01:10:00,76.2,61.3,29.94,ENE,71,1.0,1.0,60,0.00,,,0.00,Wunderground v.1.15,2013-09-03 06:10:00,
2013-09-03 01:15:00,76.3,61.4,29.94,ENE,71,1.0,3.0,60,0.00,,,0.00,Wunderground v.1.15,2013-09-03 06:15:00,
2013-09-03 01:20:00,76.2,61.3,29.94,ENE,71,1.0,1.0,60,0.00,,,0.00,Wunderground v.1.15,2013-09-03 06:20:00,
2013-09-03 01:30:00,76.0,61.1,29.94,ENE,78,2.0,2.0,60,0.00,,,0.00,Wunderground v.1.15,2013-09-03 06:30:00,
2013-09-03 01:40:00,76.0,61.1,29.95,ENE,78,1.0,1.0,60,0.00,,,0.00,Wunderground v.1.15,2013-09-03 06:40:00,
2013-09-03 01:50:00,75.6,61.2,29.95,ENE,78,1.0,2.0,61,0.00,,,0.00,Wunderground v.1.15,2013-09-03 06:50:00,
2013-09-03 01:55:00,75.6,61.2,29.95,ENE,78,1.0,2.0,61,0.00,,,0.00,Wunderground v.1.15,2013-09-03 06:55:00,
2013-09-03 02:00:00,75.5,61.1,29.95,NE,50,1.0,3.0,61,0.00,,,0.00,Wunderground v.1.15,2013-09-03 07:00:00,
2013-09-03 02:10:00,75.1,61.2,29.95,NE,35,4.0,4.0,62,0.00,,,0.00,Wunderground v.1.15,2013-09-03 07:10:00,
2013-09-03 02:20:00,75.0,61.5,29.95,NE,49,4.0,4.0,63,0.00,,,0.00,Wunderground v.1.15,2013-09-03 07:20:00,
2013-09-03 02:30:00,74.9,61.5,29.95,NE,53,3.0,3.0,63,0.00,,,0.00,Wunderground v.1.15,2013-09-03 07:30:00,
2013-09-03 02:35:00,74.9,61.5,29.95,NNE,19,3.0,3.0,63,0.00,,,0.00,Wunderground v.1.15,2013-09-03 07:35:00,
2013-09-03 02:40:00,74.7,61.3,29.95,NE,44,3.0,4.0,63,0.00,,,0.00,Wunderground v.1.15,2013-09-03 07:40:00,
2013-09-03 02:50:00,74.5,61.5,29.95,NNE,26,3.0,5.0,64,0.00,,,0.00,Wunderground v.1.15,2013-09-03 07:50:00,
2013-09-03 02:55:00,74.5,61.5,29.94,NNE,28,4.0,5.0,64,0.00,,,0.00,Wunderground v.1.15,2013-09-03 07:55:00,
2013-09-03 03:00:00,74.6,61.6,29.95,NE,40,4.0,4.0,64,0.00,,,0.00,Wunderground v.1.15,2013-09-03 08:00:00,
2013-09-03 03:05:00,74.6,61.6,29.95,NNE,13,4.0,4.0,64,0.00,,,0.00,Wunderground v.1.15,2013-09-03 08:05:00,
2013-09-03 03:10:00,74.7,61.7,29.95,NE,36,4.0,6.0,64,0.00,,,0.00,Wunderground v.1.15,2013-09-03 08:10:00,
2013-09-03 03:15:00,74.7,61.7,29.95,NNE,30,4.0,6.0,64,0.00,,,0.00,Wunderground v.1.15,2013-09-03 08:15:00,
2013-09-03 03:20:00,74.7,61.7,29.95,NNE,22,4.0,4.0,64,0.00,,,0.00,Wunderground v.1.15,2013-09-03 08:20:00,
2013-09-03 03:25:00,74.8,61.8,29.95,NE,43,4.0,4.0,64,0.00,,,0.00,Wunderground v.1.15,2013-09-03 08:25:00,
2013-09-03 03:30:00,74.9,61.9,29.95,NE,45,5.0,6.0,64,0.00,,,0.00,Wunderground v.1.15,2013-09-03 08:30:00,
2013-09-03 03:35:00,75.0,62.0,29.95,NE,50,4.0,6.0,64,0.00,,,0.00,Wunderground v.1.15,2013-09-03 08:35:00,
2013-09-03 03:40:00,75.1,62.1,29.95,NE,38,4.0,4.0,64,0.00,,,0.00,Wunderground v.1.15,2013-09-03 08:40:00,
2013-09-03 03:50:00,75.0,62.0,29.95,NNE,30,4.0,4.0,64,0.00,,,0.00,Wunderground v.1.15,2013-09-03 08:50:00,
2013-09-03 03:55:00,74.8,61.8,29.95,NE,36,3.0,6.0,64,0.00,,,0.00,Wunderground v.1.15,2013-09-03 08:55:00,
2013-09-03 04:00:00,74.7,62.1,29.95,NE,38,4.0,7.0,65,0.00,,,0.00,Wunderground v.1.15,2013-09-03 09:00:00,
2013-09-03 04:05:00,74.5,62.0,29.94,NE,35,5.0,7.0,65,0.00,,,0.00,Wunderground v.1.15,2013-09-03 09:05:00,
2013-09-03 04:15:00,74.2,62.1,29.94,NE,46,5.0,6.0,66,0.00,,,0.00,Wunderground v.1.15,2013-09-03 09:15:00,
2013-09-03 04:20:00,74.3,62.2,29.94,NNE,30,5.0,5.0,66,0.00,,,0.00,Wunderground v.1.15,2013-09-03 09:20:00,
2013-09-03 04:25:00,74.1,62.0,29.94,North,10,4.0,5.0,66,0.00,,,0.00,Wunderground v.1.15,2013-09-03 09:25:00,
2013-09-03 04:35:00,73.4,62.2,29.95,NNE,22,3.0,3.0,68,0.00,,,0.00,Wunderground v.1.15,2013-09-03 09:35:00,
2013-09-03 04:40:00,73.2,62.0,29.95,NNE,13,2.0,3.0,68,0.00,,,0.00,Wunderground v.1.15,2013-09-03 09:40:00,
2013-09-03 04:45:00,73.0,61.8,29.95,NNE,13,2.0,3.0,68,0.00,,,0.00,Wunderground v.1.15,2013-09-03 09:45:00,
2013-09-03 04:55:00,72.5,61.7,29.95,NNE,17,3.0,5.0,69,0.00,,,0.00,Wunderground v.1.15,2013-09-03 09:55:00,
2013-09-03 05:00:00,72.3,62.0,29.95,NNE,19,3.0,5.0,70,0.00,,,0.00,Wunderground v.1.15,2013-09-03 10:00:00,
2013-09-03 05:05:00,72.1,61.8,29.95,North,5,3.0,5.0,70,0.00,,,0.00,Wunderground v.1.15,2013-09-03 10:05:00,
2013-09-03 05:10:00,71.9,61.6,29.95,NNE,17,3.0,5.0,70,0.00,,,0.00,Wunderground v.1.15,2013-09-03 10:10:00,
2013-09-03 05:15:00,71.9,62.0,29.96,NE,35,3.0,5.0,71,0.00,,,0.00,Wunderground v.1.15,2013-09-03 10:15:00,
2013-09-03 05:20:00,71.8,61.9,29.95,North,355,4.0,4.0,71,0.00,,,0.00,Wunderground v.1.15,2013-09-03 10:20:00,
2013-09-03 05:25:00,71.7,61.8,29.96,North,11,4.0,4.0,71,0.00,,,0.00,Wunderground v.1.15,2013-09-03 10:25:00,
2013-09-03 05:35:00,71.6,61.7,29.96,NE,41,3.0,3.0,71,0.00,,,0.00,Wunderground v.1.15,2013-09-03 10:35:00,
2013-09-03 05:40:00,71.5,62.0,29.96,NNE,21,3.0,4.0,72,0.00,,,0.00,Wunderground v.1.15,2013-09-03 10:40:00,
2013-09-03 05:45:00,71.3,61.8,29.95,NNE,13,3.0,4.0,72,0.00,,,0.00,Wunderground v.1.15,2013-09-03 10:45:00,
2013-09-03 05:55:00,71.1,61.6,29.96,NNE,24,4.0,4.0,72,0.00,,,0.00,Wunderground v.1.15,2013-09-03 10:55:00,
2013-09-03 06:00:00,71.0,61.9,29.96,NNE,17,4.0,7.0,73,0.00,,,0.00,Wunderground v.1.15,2013-09-03 11:00:00,
2013-09-03 06:10:00,70.8,61.7,29.96,NNE,21,4.0,4.0,73,0.00,,,0.00,Wunderground v.1.15,2013-09-03 11:10:00,
2013-09-03 06:15:00,70.8,61.7,29.96,NNE,26,3.0,5.0,73,0.00,,,0.00,Wunderground v.1.15,2013-09-03 11:15:00,
2013-09-03 06:20:00,70.8,61.7,29.97,North,5,4.0,4.0,73,0.00,,,0.00,Wunderground v.1.15,2013-09-03 11:20:00,
2013-09-03 06:30:00,70.6,61.9,29.97,NNE,25,2.0,4.0,74,0.00,,,0.00,Wunderground v.1.15,2013-09-03 11:30:00,
2013-09-03 06:35:00,70.5,61.8,29.97,NNE,19,3.0,4.0,74,0.00,,,0.00,Wunderground v.1.15,2013-09-03 11:35:00,
2013-09-03 06:40:00,70.4,61.7,29.97,NNE,16,3.0,6.0,74,0.00,,,0.00,Wunderground v.1.15,2013-09-03 11:40:00,
2013-09-03 06:45:00,70.4,61.7,29.97,NNE,17,4.0,6.0,74,0.00,,,0.00,Wunderground v.1.15,2013-09-03 11:45:00,
2013-09-03 06:50:00,70.3,61.6,29.97,NNE,19,4.0,4.0,74,0.00,,,0.00,Wunderground v.1.15,2013-09-03 11:50:00,
2013-09-03 06:55:00,70.2,61.9,29.97,NNE,30,3.0,4.0,75,0.00,,,0.00,Wunderground v.1.15,2013-09-03 11:55:00,
2013-09-03 07:00:00,70.2,61.9,29.97,NNE,17,3.0,4.0,75,0.00,,,0.00,Wunderground v.1.15,2013-09-03 12:00:00,
2013-09-03 07:05:00,70.1,61.8,29.97,NNE,28,3.0,4.0,75,0.00,,,0.00,Wunderground v.1.15,2013-09-03 12:05:00,
2013-09-03 07:10:00,70.0,61.7,29.98,NE,35,3.0,3.0,75,0.00,,,0.00,Wunderground v.1.15,2013-09-03 12:10:00,
2013-09-03 07:15:00,69.9,61.6,29.98,NNE,19,3.0,3.0,75,0.00,,,0.00,Wunderground v.1.15,2013-09-03 12:15:00,
2013-09-03 07:20:00,70.0,61.7,29.98,North,9,3.0,3.0,75,0.00,,,0.00,Wunderground v.1.15,2013-09-03 12:20:00,
2013-09-03 07:30:00,70.1,61.8,29.98,NNE,22,3.0,5.0,75,0.00,,,0.00,Wunderground v.1.15,2013-09-03 12:30:00,
2013-09-03 07:35:00,70.2,61.9,29.98,NNE,24,3.0,5.0,75,0.00,,,0.00,Wunderground v.1.15,2013-09-03 12:35:00,
2013-09-03 07:40:00,70.4,62.1,29.98,NNE,30,3.0,3.0,75,0.00,,,0.00,Wunderground v.1.15,2013-09-03 12:40:00,
2013-09-03 07:45:00,70.6,62.3,29.98,NNE,22,3.0,3.0,75,0.00,,,0.00,Wunderground v.1.15,2013-09-03 12:45:00,
2013-09-03 07:50:00,70.8,62.1,29.98,North,11,3.0,3.0,74,0.00,,,0.00,Wunderground v.1.15,2013-09-03 12:50:00,
2013-09-03 07:55:00,71.0,62.3,29.98,ENE,57,3.0,4.0,74,0.00,,,0.00,Wunderground v.1.15,2013-09-03 12:55:00,
2013-09-03 08:00:00,71.1,62.4,29.98,NE,44,3.0,4.0,74,0.00,,,0.00,Wunderground v.1.15,2013-09-03 13:00:00,
2013-09-03 08:05:00,71.3,62.6,29.98,NE,40,3.0,4.0,74,0.00,,,0.00,Wunderground v.1.15,2013-09-03 13:05:00,
2013-09-03 08:15:00,72.4,62.9,29.99,NE,36,3.0,6.0,72,0.00,,,0.00,Wunderground v.1.15,2013-09-03 13:15:00,
2013-09-03 08:20:00,72.8,62.8,29.99,NNE,20,3.0,3.0,71,0.00,,,0.00,Wunderground v.1.15,2013-09-03 13:20:00,
2013-09-03 08:25:00,73.0,63.0,29.99,NNE,24,2.0,4.0,71,0.00,,,0.00,Wunderground v.1.15,2013-09-03 13:25:00,
2013-09-03 08:35:00,73.9,63.1,29.99,NNE,13,3.0,5.0,69,0.00,,,0.00,Wunderground v.1.15,2013-09-03 13:35:00,
2013-09-03 08:40:00,74.0,63.2,29.99,NNE,28,4.0,5.0,69,0.00,,,0.00,Wunderground v.1.15,2013-09-03 13:40:00,
2013-09-03 08:50:00,74.2,63.4,29.99,NE,38,5.0,5.0,69,0.00,,,0.00,Wunderground v.1.15,2013-09-03 13:50:00,
2013-09-03 09:00:00,74.6,63.3,30.00,ENE,59,5.0,5.0,68,0.00,,,0.00,Wunderground v.1.15,2013-09-03 14:00:00,
2013-09-03 09:05:00,75.0,63.7,30.00,NE,51,5.0,5.0,68,0.00,,,0.00,Wunderground v.1.15,2013-09-03 14:05:00,
2013-09-03 09:10:00,75.6,63.9,30.00,NE,41,4.0,6.0,67,0.00,,,0.00,Wunderground v.1.15,2013-09-03 14:10:00,
2013-09-03 09:20:00,76.5,63.9,29.99,NE,51,4.0,4.0,65,0.00,,,0.00,Wunderground v.1.15,2013-09-03 14:20:00,
2013-09-03 09:25:00,76.7,63.6,29.99,NNE,26,4.0,5.0,64,0.00,,,0.00,Wunderground v.1.15,2013-09-03 14:25:00,
2013-09-03 09:30:00,76.8,64.1,29.99,NE,44,5.0,7.0,65,0.00,,,0.00,Wunderground v.1.15,2013-09-03 14:30:00,
2013-09-03 09:40:00,77.8,64.2,30.00,NE,38,5.0,5.0,63,0.00,,,0.00,Wunderground v.1.15,2013-09-03 14:40:00,
2013-09-03 09:50:00,77.7,64.1,30.00,NNE,30,5.0,6.0,63,0.00,,,0.00,Wunderground v.1.15,2013-09-03 14:50:00,
2013-09-03 09:55:00,77.9,64.3,30.00,NNE,26,6.0,7.0,63,0.00,,,0.00,Wunderground v.1.15,2013-09-03 14:55:00,
2013-09-03 10:05:00,78.7,64.6,30.00,NE,43,5.0,6.0,62,0.00,,,0.00,Wunderground v.1.15,2013-09-03 15:05:00,
2013-09-03 10:10:00,79.3,64.7,30.00,NE,53,5.0,5.0,61,0.00,,,0.00,Wunderground v.1.15,2013-09-03 15:10:00,
2013-09-03 10:15:00,80.0,64.9,30.00,North,355,4.0,5.0,60,0.00,,,0.00,Wunderground v.1.15,2013-09-03 15:15:00,
2013-09-03 10:20:00,80.3,64.7,30.00,NE,51,4.0,8.0,59,0.00,,,0.00,Wunderground v.1.15,2013-09-03 15:20:00,
2013-09-03 10:25:00,80.3,65.1,30.00,NNE,24,5.0,8.0,60,0.00,,,0.00,Wunderground v.1.15,2013-09-03 15:25:00,
2013-09-03 10:30:00,80.6,64.9,30.01,NNE,20,4.0,4.0,59,0.00,,,0.00,Wunderground v.1.15,2013-09-03 15:30:00,
2013-09-03 10:40:00,81.6,64.9,30.01,NNE,28,5.0,8.0,57,0.00,,,0.00,Wunderground v.1.15,2013-09-03 15:40:00,
2013-09-03 10:50:00,82.2,64.9,30.01,NNE,13,4.0,4.0,56,0.00,,,0.00,Wunderground v.1.15,2013-09-03 15:50:00,
2013-09-03 10:55:00,82.9,64.5,30.01,NNE,18,3.0,6.0,54,0.00,,,0.00,Wunderground v.1.15,2013-09-03 15:55:00,
2013-09-03 11:00:00,83.0,64.6,30.01,NNE,27,4.0,4.0,54,0.00,,,0.00,Wunderground v.1.15,2013-09-03 16:00:00,
2013-09-03 11:05:00,83.3,64.4,30.01,NE,50,4.0,4.0,53,0.00,,,0.00,Wunderground v.1.15,2013-09-03 16:05:00,
2013-09-03 11:15:00,83.5,64.6,30.00,North,11,3.0,3.0,53,0.00,,,0.00,Wunderground v.1.15,2013-09-03 16:15:00,
2013-09-03 11:20:00,83.8,63.2,30.00,NNW,340,4.0,5.0,50,0.00,,,0.00,Wunderground v.1.15,2013-09-03 16:20:00,
2013-09-03 11:25:00,83.9,63.8,30.00,NNE,15,3.0,5.0,51,0.00,,,0.00,Wunderground v.1.15,2013-09-03 16:25:00,
2013-09-03 11:30:00,84.2,63.5,30.00,North,360,4.0,4.0,50,0.00,,,0.00,Wunderground v.1.15,2013-09-03 16:30:00,
2013-09-03 11:40:00,84.4,63.7,30.00,ENE,57,4.0,4.0,50,0.00,,,0.00,Wunderground v.1.15,2013-09-03 16:40:00,
2013-09-03 11:45:00,84.9,63.6,30.00,ENE,71,3.0,4.0,49,0.00,,,0.00,Wunderground v.1.15,2013-09-03 16:45:00,
2013-09-03 11:50:00,85.3,63.4,29.99,North,360,3.0,5.0,48,0.00,,,0.00,Wunderground v.1.15,2013-09-03 16:50:00,
2013-09-03 11:55:00,85.3,62.8,29.99,NE,38,4.0,9.0,47,0.00,,,0.00,Wunderground v.1.15,2013-09-03 16:55:00,
2013-09-03 12:05:00,86.1,61.6,29.99,NNE,25,6.0,7.0,44,0.00,,,0.00,Wunderground v.1.15,2013-09-03 17:05:00,
2013-09-03 12:10:00,86.5,62.6,29.99,North,5,6.0,6.0,45,0.00,,,0.00,Wunderground v.1.15,2013-09-03 17:10:00,
2013-09-03 12:15:00,86.7,62.2,29.99,NE,36,4.0,6.0,44,0.00,,,0.00,Wunderground v.1.15,2013-09-03 17:15:00,
2013-09-03 12:20:00,86.7,60.9,29.98,North,355,5.0,5.0,42,0.00,,,0.00,Wunderground v.1.15,2013-09-03 17:20:00,
2013-09-03 12:25:00,87.0,61.8,29.98,ENE,61,5.0,8.0,43,0.00,,,0.00,Wunderground v.1.15,2013-09-03 17:25:00,
2013-09-03 12:30:00,87.0,61.8,29.98,NE,39,4.0,5.0,43,0.00,,,0.00,Wunderground v.1.15,2013-09-03 17:30:00,
2013-09-03 12:40:00,87.0,61.1,29.98,NNE,25,6.0,7.0,42,0.00,,,0.00,Wunderground v.1.15,2013-09-03 17:40:00,
2013-09-03 12:45:00,87.3,62.1,29.98,NNE,18,6.0,7.0,43,0.00,,,0.00,Wunderground v.1.15,2013-09-03 17:45:00,
2013-09-03 12:50:00,87.4,61.5,29.98,NNW,341,6.0,8.0,42,0.00,,,0.00,Wunderground v.1.15,2013-09-03 17:50:00,
2013-09-03 12:55:00,87.7,61.8,29.98,WNW,302,6.0,8.0,42,0.00,,,0.00,Wunderground v.1.15,2013-09-03 17:55:00,
2013-09-03 13:00:00,88.1,60.7,29.98,NNE,15,5.0,5.0,40,0.00,,,0.00,Wunderground v.1.15,2013-09-03 18:00:00,
2013-09-03 13:10:00,88.9,58.5,29.97,NW,319,5.0,5.0,36,0.00,,,0.00,Wunderground v.1.15,2013-09-03 18:10:00,
2013-09-03 13:15:00,89.0,60.1,29.97,NNE,22,6.0,6.0,38,0.00,,,0.00,Wunderground v.1.15,2013-09-03 18:15:00,
2013-09-03 13:20:00,88.6,59.0,29.97,North,360,6.0,7.0,37,0.00,,,0.00,Wunderground v.1.15,2013-09-03 18:20:00,
2013-09-03 13:25:00,88.9,60.7,29.97,North,5,5.0,7.0,39,0.00,,,0.00,Wunderground v.1.15,2013-09-03 18:25:00,
2013-09-03 13:30:00,89.0,60.8,29.97,North,5,5.0,5.0,39,0.00,,,0.00,Wunderground v.1.15,2013-09-03 18:30:00,
2013-09-03 13:35:00,89.5,59.8,29.97,East,90,5.0,5.0,37,0.00,,,0.00,Wunderground v.1.15,2013-09-03 18:35:00,
2013-09-03 13:45:00,89.8,60.1,29.96,North,360,5.0,6.0,37,0.00,,,0.00,Wunderground v.1.15,2013-09-03 18:45:00,
2013-09-03 13:50:00,90.2,59.6,29.96,NNE,27,5.0,6.0,36,0.00,,,0.00,Wunderground v.1.15,2013-09-03 18:50:00,
2013-09-03 13:55:00,90.2,59.6,29.96,WNW,291,6.0,6.0,36,0.00,,,0.00,Wunderground v.1.15,2013-09-03 18:55:00,
2013-09-03 14:00:00,90.3,58.9,29.96,North,355,5.0,5.0,35,0.00,,,0.00,Wunderground v.1.15,2013-09-03 19:00:00,
2013-09-03 14:05:00,90.6,58.4,29.96,NNW,342,6.0,6.0,34,0.00,,,0.00,Wunderground v.1.15,2013-09-03 19:05:00,
2013-09-03 14:10:00,90.4,59.0,29.95,NNW,331,6.0,10.0,35,0.00,,,0.00,Wunderground v.1.15,2013-09-03 19:10:00,
2013-09-03 14:15:00,90.7,58.5,29.95,NNE,24,5.0,10.0,34,0.00,,,0.00,Wunderground v.1.15,2013-09-03 19:15:00,
2013-09-03 14:25:00,91.0,58.7,29.95,NE,51,5.0,7.0,34,0.00,,,0.00,Wunderground v.1.15,2013-09-03 19:25:00,
2013-09-03 14:30:00,90.3,58.9,29.95,NE,47,5.0,5.0,35,0.00,,,0.00,Wunderground v.1.15,2013-09-03 19:30:00,
2013-09-03 14:40:00,90.6,59.2,29.94,ENE,69,5.0,5.0,35,0.00,,,0.00,Wunderground v.1.15,2013-09-03 19:40:00,
2013-09-03 14:45:00,90.7,59.3,29.94,NE,42,5.0,8.0,35,0.00,,,0.00,Wunderground v.1.15,2013-09-03 19:45:00,
2013-09-03 14:50:00,90.7,59.3,29.94,West,276,5.0,5.0,35,0.00,,,0.00,Wunderground v.1.15,2013-09-03 19:50:00,
2013-09-03 14:55:00,91.0,59.5,29.93,NNE,22,4.0,5.0,35,0.00,,,0.00,Wunderground v.1.15,2013-09-03 19:55:00,
2013-09-03 15:00:00,91.6,58.4,29.93,North,355,4.0,4.0,33,0.00,,,0.00,Wunderground v.1.15,2013-09-03 20:00:00,
2013-09-03 15:05:00,92.0,58.8,29.93,North,5,4.0,5.0,33,0.00,,,0.00,Wunderground v.1.15,2013-09-03 20:05:00,
2013-09-03 15:10:00,92.6,59.3,29.93,NNE,13,4.0,10.0,33,0.00,,,0.00,Wunderground v.1.15,2013-09-03 20:10:00,
2013-09-03 15:15:00,92.1,58.9,29.93,NNE,32,6.0,10.0,33,0.00,,,0.00,Wunderground v.1.15,2013-09-03 20:15:00,
2013-09-03 15:20:00,92.4,59.1,29.93,NNE,22,6.0,6.0,33,0.00,,,0.00,Wunderground v.1.15,2013-09-03 20:20:00,
2013-09-03 15:25:00,92.7,59.4,29.93,North,360,5.0,6.0,33,0.00,,,0.00,Wunderground v.1.15,2013-09-03 20:25:00,
2013-09-03 15:30:00,92.5,59.2,29.93,NE,38,6.0,9.0,33,0.00,,,0.00,Wunderground v.1.15,2013-09-03 20:30:00,
2013-09-03 15:35:00,92.1,58.9,29.93,NW,315,6.0,9.0,33,0.00,,,0.00,Wunderground v.1.15,2013-09-03 20:35:00,
2013-09-03 15:45:00,92.7,58.5,29.92,NNE,31,5.0,6.0,32,0.00,,,0.00,Wunderground v.1.15,2013-09-03 20:45:00,
2013-09-03 15:55:00,93.8,58.6,29.92,North,360,5.0,10.0,31,0.00,,,0.00,Wunderground v.1.15,2013-09-03 20:55:00,
2013-09-03 16:00:00,93.1,58.9,29.92,NNE,17,7.0,7.0,32,0.00,,,0.00,Wunderground v.1.15,2013-09-03 21:00:00,
2013-09-03 16:05:00,92.8,58.6,29.91,North,355,7.0,7.0,32,0.00,,,0.00,Wunderground v.1.15,2013-09-03 21:05:00,
2013-09-03 16:15:00,92.9,58.7,29.91,NE,42,6.0,8.0,32,0.00,,,0.00,Wunderground v.1.15,2013-09-03 21:15:00,
2013-09-03 16:20:00,92.7,59.4,29.91,NE,38,7.0,7.0,33,0.00,,,0.00,Wunderground v.1.15,2013-09-03 21:20:00,
2013-09-03 16:25:00,92.4,60.0,29.91,East,87,8.0,8.0,34,0.00,,,0.00,Wunderground v.1.15,2013-09-03 21:25:00,
2013-09-03 16:30:00,92.6,59.3,29.91,NNE,32,6.0,6.0,33,0.00,,,0.00,Wunderground v.1.15,2013-09-03 21:30:00,
2013-09-03 16:35:00,93.0,59.6,29.91,NE,37,5.0,9.0,33,0.00,,,0.00,Wunderground v.1.15,2013-09-03 21:35:00,
2013-09-03 16:40:00,93.0,59.6,29.90,NE,47,6.0,9.0,33,0.00,,,0.00,Wunderground v.1.15,2013-09-03 21:40:00,
2013-09-03 16:45:00,92.5,60.0,29.90,NNE,33,7.0,9.0,34,0.00,,,0.00,Wunderground v.1.15,2013-09-03 21:45:00,
2013-09-03 16:55:00,92.9,60.4,29.90,North,5,7.0,10.0,34,0.00,,,0.00,Wunderground v.1.15,2013-09-03 21:55:00,
2013-09-03 17:00:00,92.5,60.0,29.90,ENE,69,8.0,8.0,34,0.00,,,0.00,Wunderground v.1.15,2013-09-03 22:00:00,
2013-09-03 17:05:00,92.5,60.0,29.90,East,79,7.0,8.0,34,0.00,,,0.00,Wunderground v.1.15,2013-09-03 22:05:00,
2013-09-03 17:10:00,92.6,61.0,29.89,North,5,5.0,8.0,35,0.00,,,0.00,Wunderground v.1.15,2013-09-03 22:10:00,
2013-09-03 17:15:00,92.8,60.3,29.90,NNE,15,5.0,8.0,34,0.00,,,0.00,Wunderground v.1.15,2013-09-03 22:15:00,
2013-09-03 17:25:00,92.7,60.2,29.90,ENE,58,8.0,8.0,34,0.00,,,0.00,Wunderground v.1.15,2013-09-03 22:25:00,
2013-09-03 17:30:00,92.6,60.1,29.90,North,5,6.0,9.0,34,0.00,,,0.00,Wunderground v.1.15,2013-09-03 22:30:00,
2013-09-03 17:35:00,92.9,60.4,29.90,NE,38,6.0,10.0,34,0.00,,,0.00,Wunderground v.1.15,2013-09-03 22:35:00,
2013-09-03 17:40:00,92.6,60.1,29.90,East,88,7.0,7.0,34,0.00,,,0.00,Wunderground v.1.15,2013-09-03 22:40:00,
2013-09-03 17:45:00,92.4,60.0,29.90,ENE,77,6.0,7.0,34,0.00,,,0.00,Wunderground v.1.15,2013-09-03 22:45:00,
2013-09-03 17:50:00,92.2,60.6,29.90,NE,36,6.0,6.0,35,0.00,,,0.00,Wunderground v.1.15,2013-09-03 22:50:00,
2013-09-03 17:55:00,92.1,60.5,29.90,North,355,7.0,7.0,35,0.00,,,0.00,Wunderground v.1.15,2013-09-03 22:55:00,
2013-09-03 18:05:00,92.2,61.4,29.90,NE,41,4.0,6.0,36,0.00,,,0.00,Wunderground v.1.15,2013-09-03 23:05:00,
2013-09-03 18:10:00,91.9,61.1,29.89,NE,46,5.0,7.0,36,0.00,,,0.00,Wunderground v.1.15,2013-09-03 23:10:00,
2013-09-03 18:15:00,91.8,61.0,29.89,North,355,5.0,8.0,36,0.00,,,0.00,Wunderground v.1.15,2013-09-03 23:15:00,
2013-09-03 18:20:00,91.8,61.0,29.89,NNE,18,5.0,5.0,36,0.00,,,0.00,Wunderground v.1.15,2013-09-03 23:20:00,
2013-09-03 18:25:00,91.9,60.3,29.90,NE,44,6.0,8.0,35,0.00,,,0.00,Wunderground v.1.15,2013-09-03 23:25:00,
2013-09-03 18:30:00,91.8,61.0,29.90,NE,34,6.0,8.0,36,0.00,,,0.00,Wunderground v.1.15,2013-09-03 23:30:00,
2013-09-03 18:35:00,91.6,60.9,29.90,NNE,22,7.0,8.0,36,0.00,,,0.00,Wunderground v.1.15,2013-09-03 23:35:00,
2013-09-03 18:40:00,91.4,61.5,29.90,North,355,6.0,7.0,37,0.00,,,0.00,Wunderground v.1.15,2013-09-03 23:40:00,
2013-09-03 18:45:00,91.2,61.3,29.90,NE,45,5.0,7.0,37,0.00,,,0.00,Wunderground v.1.15,2013-09-03 23:45:00,
2013-09-03 18:55:00,91.0,61.9,29.90,North,5,7.0,8.0,38,0.00,,,0.00,Wunderground v.1.15,2013-09-03 23:55:00,
2013-09-03 19:00:00,90.7,62.3,29.90,NNE,20,6.0,9.0,39,0.00,,,0.00,Wunderground v.1.15,2013-09-04 00:00:00,
2013-09-03 19:05:00,90.5,62.2,29.90,NNE,13,6.0,9.0,39,0.00,,,0.00,Wunderground v.1.15,2013-09-04 00:05:00,
2013-09-03 19:10:00,90.2,62.6,29.90,North,5,7.0,7.0,40,0.00,,,0.00,Wunderground v.1.15,2013-09-04 00:10:00,
2013-09-03 19:15:00,90.0,62.4,29.90,NNE,20,6.0,7.0,40,0.00,,,0.00,Wunderground v.1.15,2013-09-04 00:15:00,
2013-09-03 19:20:00,89.7,62.9,29.90,NNE,15,6.0,6.0,41,0.00,,,0.00,Wunderground v.1.15,2013-09-04 00:20:00,
2013-09-03 19:25:00,89.5,62.7,29.90,NNE,13,5.0,9.0,41,0.00,,,0.00,Wunderground v.1.15,2013-09-04 00:25:00,
2013-09-03 19:35:00,88.9,62.8,29.90,NNE,15,5.0,7.0,42,0.00,,,0.00,Wunderground v.1.15,2013-09-04 00:35:00,
2013-09-03 19:40:00,88.6,63.2,29.90,NNE,18,5.0,6.0,43,0.00,,,0.00,Wunderground v.1.15,2013-09-04 00:40:00,
2013-09-03 19:45:00,88.3,63.0,29.90,NNE,28,5.0,6.0,43,0.00,,,0.00,Wunderground v.1.15,2013-09-04 00:45:00,
2013-09-03 19:55:00,87.7,63.1,29.91,NE,38,5.0,9.0,44,0.00,,,0.00,Wunderground v.1.15,2013-09-04 00:55:00,
2013-09-03 20:00:00,87.4,63.5,29.91,North,5,5.0,5.0,45,0.00,,,0.00,Wunderground v.1.15,2013-09-04 01:00:00,
2013-09-03 20:05:00,87.1,63.2,29.91,North,9,5.0,6.0,45,0.00,,,0.00,Wunderground v.1.15,2013-09-04 01:05:00,
2013-09-03 20:10:00,86.9,63.0,29.91,NNE,16,5.0,5.0,45,0.00,,,0.00,Wunderground v.1.15,2013-09-04 01:10:00,
2013-09-03 20:15:00,86.6,63.4,29.91,North,360,5.0,5.0,46,0.00,,,0.00,Wunderground v.1.15,2013-09-04 01:15:00,
2013-09-03 20:25:00,86.0,63.4,29.91,NNE,15,4.0,6.0,47,0.00,,,0.00,Wunderground v.1.15,2013-09-04 01:25:00,
2013-09-03 20:30:00,85.7,63.1,29.92,NE,37,5.0,6.0,47,0.00,,,0.00,Wunderground v.1.15,2013-09-04 01:30:00,
2013-09-03 20:35:00,85.4,63.5,29.92,NNE,28,5.0,6.0,48,0.00,,,0.00,Wunderground v.1.15,2013-09-04 01:35:00,
2013-09-03 20:45:00,85.0,63.1,29.93,NNE,30,4.0,6.0,48,0.00,,,0.00,Wunderground v.1.15,2013-09-04 01:45:00,
2013-09-03 20:50:00,84.8,62.9,29.93,NE,51,4.0,7.0,48,0.00,,,0.00,Wunderground v.1.15,2013-09-04 01:50:00,
2013-09-03 20:55:00,84.6,62.7,29.93,NNE,24,5.0,7.0,48,0.00,,,0.00,Wunderground v.1.15,2013-09-04 01:55:00,
2013-09-03 21:00:00,84.4,62.6,29.93,North,5,5.0,7.0,48,0.00,,,0.00,Wunderground v.1.15,2013-09-04 02:00:00,
2013-09-03 21:05:00,84.3,63.1,29.93,NNE,19,5.0,7.0,49,0.00,,,0.00,Wunderground v.1.15,2013-09-04 02:05:00,
2013-09-03 21:15:00,83.8,62.6,29.94,ENE,57,5.0,7.0,49,0.00,,,0.00,Wunderground v.1.15,2013-09-04 02:15:00,
2013-09-03 21:25:00,83.3,62.7,29.94,NE,47,4.0,5.0,50,0.00,,,0.00,Wunderground v.1.15,2013-09-04 02:25:00,
2013-09-03 21:30:00,83.2,62.6,29.94,NNE,22,5.0,5.0,50,0.00,,,0.00,Wunderground v.1.15,2013-09-04 02:30:00,
2013-09-03 21:35:00,83.0,62.4,29.94,NE,50,5.0,6.0,50,0.00,,,0.00,Wunderground v.1.15,2013-09-04 02:35:00,
2013-09-03 21:40:00,82.8,62.8,29.95,NE,40,5.0,7.0,51,0.00,,,0.00,Wunderground v.1.15,2013-09-04 02:40:00,
2013-09-03 21:45:00,82.6,62.6,29.95,East,94,6.0,7.0,51,0.00,,,0.00,Wunderground v.1.15,2013-09-04 02:45:00,
2013-09-03 21:50:00,82.4,62.5,29.95,NE,49,6.0,8.0,51,0.00,,,0.00,Wunderground v.1.15,2013-09-04 02:50:00,
2013-09-03 21:55:00,82.1,62.7,29.96,ENE,59,7.0,8.0,52,0.00,,,0.00,Wunderground v.1.15,2013-09-04 02:55:00,
2013-09-03 22:05:00,81.8,63.0,29.96,NNE,17,7.0,8.0,53,0.00,,,0.00,Wunderground v.1.15,2013-09-04 03:05:00,
2013-09-03 22:10:00,81.6,62.8,29.96,NE,49,7.0,7.0,53,0.00,,,0.00,Wunderground v.1.15,2013-09-04 03:10:00,
2013-09-03 22:15:00,81.5,62.7,29.96,NNE,22,6.0,8.0,53,0.00,,,0.00,Wunderground v.1.15,2013-09-04 03:15:00,
2013-09-03 22:25:00,81.3,63.1,29.96,NE,43,7.0,7.0,54,0.00,,,0.00,Wunderground v.1.15,2013-09-04 03:25:00,
2013-09-03 22:35:00,80.8,62.6,29.96,NNE,27,6.0,7.0,54,0.00,,,0.00,Wunderground v.1.15,2013-09-04 03:35:00,
2013-09-03 22:40:00,80.5,62.8,29.96,NE,45,6.0,6.0,55,0.00,,,0.00,Wunderground v.1.15,2013-09-04 03:40:00,
2013-09-03 22:45:00,80.3,62.7,29.96,NNE,26,6.0,6.0,55,0.00,,,0.00,Wunderground v.1.15,2013-09-04 03:45:00,
2013-09-03 22:50:00,80.1,63.0,29.96,NNE,33,5.0,7.0,56,0.00,,,0.00,Wunderground v.1.15,2013-09-04 03:50:00,
2013-09-03 22:55:00,80.0,62.9,29.96,ENE,65,6.0,9.0,56,0.00,,,0.00,Wunderground v.1.15,2013-09-04 03:55:00,
2013-09-03 23:00:00,80.0,62.9,29.96,NNE,32,7.0,8.0,56,0.00,,,0.00,Wunderground v.1.15,2013-09-04 04:00:00,
2013-09-03 23:05:00,80.2,63.1,29.97,NE,36,7.0,8.0,56,0.00,,,0.00,Wunderground v.1.15,2013-09-04 04:05:00,
2013-09-03 23:10:00,80.3,63.2,29.97,NE,54,7.0,7.0,56,0.00,,,0.00,Wunderground v.1.15,2013-09-04 04:10:00,
2013-09-03 23:20:00,80.2,63.1,29.97,NNE,30,5.0,6.0,56,0.00,,,0.00,Wunderground v.1.15,2013-09-04 04:20:00,
2013-09-03 23:25:00,80.0,62.9,29.97,NE,40,4.0,6.0,56,0.00,,,0.00,Wunderground v.1.15,2013-09-04 04:25:00,
2013-09-03 23:30:00,79.9,62.8,29.97,NNE,26,4.0,5.0,56,0.00,,,0.00,Wunderground v.1.15,2013-09-04 04:30:00,
2013-09-03 23:35:00,79.6,63.0,29.97,North,350,4.0,5.0,57,0.00,,,0.00,Wunderground v.1.15,2013-09-04 04:35:00,
2013-09-03 23:40:00,79.4,62.8,29.97,NE,51,5.0,5.0,57,0.00,,,0.00,Wunderground v.1.15,2013-09-04 04:40:00,
2013-09-03 23:45:00,79.4,62.8,29.97,NE,42,5.0,5.0,57,0.00,,,0.00,Wunderground v.1.15,2013-09-04 04:45:00,
2013-09-03 23:50:00,79.3,63.2,29.97,NNE,32,5.0,5.0,58,0.00,,,0.00,Wunderground v.1.15,2013-09-04 04:50:00,
2013-09-03 23:55:00,79.1,63.1,29.97,NE,47,4.0,5.0,58,0.00,,,0.00,Wunderground v.1.15,2013-09-04 04:55:00,